Location: Recife
(8.0585°S, 34.8848°W)
Time: 12:46:27
(UTC-03:00)

Transit 4A - Pass Details

Date: 22 April 2026
Orbit: 861 x 980 km, 66.8° (Epoch: 12 May)

Event Time Altitude Azimuth Distance (km) Brightness Sun altitude
Rises 10:53:59 0° 205° (SSW) 3,445 10.7 68.8°
Reaches altitude 10° 10:56:28 10° 207° (SSW) 2,510 10.1 68.9°
Maximum altitude 11:02:13 69° 289° (WNW) 934 9.4 69.2°
Drops below altitude 10° 11:08:04 10° 12° (NNE) 2,549 10.7 69.5°
Sets 11:10:35 0° 14° (NNE) 3,502 11.2 69.5°
